Location: Godiavel Galaoual
(15.2485°N, 12.6604°W)
Time: 11:50:37
(UTC+00:00)

LightSail 2 - Pass Details

Date: 11 June 2020
Orbit: 692 x 720 km, 24.0° (Epoch: 14 July)

Event Time Altitude Azimuth Distance (km) Brightness Sun altitude
Rises 20:13:12 0° 261° (W) 3,050 9.3 -12.1°
Reaches altitude 10° 20:15:39 10° 265° (W) 2,132 8.5 -12.6°
Maximum altitude 20:20:35 57° 343° (NNW) 805 5.7 -13.7°
Drops below altitude 10° 20:25:32 10° 63° (ENE) 2,130 7.3 -14.7°
Enters shadow 20:26:19 - 64° (ENE) 2,423 7.6 -14.9°
